GEFSSGP_con_cape1000_336.txt.gz
Probability
19 10 16 19 19 6 0 0 0 0 0 0 0 0 0 0 0 0 0 6 10 26 29 52 74 77 71 71 65 71 74 74 68 68 68 65 65 68 74 77 77 77 74 71 68 68 61 58 65
6 6 13 19 16 0 0 0 0 0 0 0 0 0 0 3 0 0 3 6 10 13 26 45 65 74 74 68 68 71 71 74 68 68 71 71 61 68 68 68 71 71 68 68 58 61 65 48 48
0 10 16 16 0 0 0 0 0 0 0 0 0 0 0 3 3 3 3 6 10 13 19 42 68 68 68 65 65 65 71 68 74 71 74 68 55 58 58 61 68 68 58 61 58 52 52 39 39
13 16 19 10 0 0 0 0 0 0 0 0 0 0 0 3 3 3 0 3 13 13 23 45 65 65 68 68 65 68 65 61 61 65 65 61 55 55 58 58 58 55 52 52 52 48 39 32 32
6 16 3 0 0 0 0 0 0 0 0 0 0 0 0 3 0 0 0 3 10 10 26 45 68 68 65 68 61 61 68 65 65 55 58 61 61 61 61 52 48 52 55 58 48 52 42 39 35
6 0 0 0 0 0 0 0 0 3 0 0 0 0 0 0 3 3 0 3 3 10 26 39 68 74 74 74 68 71 71 65 65 58 61 58 65 65 58 55 58 55 48 55 58 45 45 42 45
6 3 0 0 0 0 0 0 0 0 0 0 0 0 0 3 3 0 3 3 3 10 19 29 32 48 71 77 71 71 74 71 61 58 58 58 58 58 58 61 58 55 55 58 58 45 42 45 48
13 0 0 0 0 0 0 0 0 0 0 0 0 0 0 0 0 0 3 3 3 10 10 13 19 29 32 42 65 68 71 71 68 65 71 68 65 65 55 65 58 61 52 52 52 48 45 52 48
6 0 0 0 0 0 0 0 0 0 0 0 0 0 0 0 0 0 3 3 6 10 10 13 10 13 16 19 45 55 65 68 65 61 65 68 39 42 48 48 48 55 61 48 52 52 45 48 52
0 0 0 0 0 0 0 0 0 0 0 0 0 0 0 0 0 0 3 3 6 10 3 6 3 6 10 13 13 23 26 26 32 29 32 26 13 16 26 42 58 55 58 58 61 55 58 48 23
0 0 0 0 0 0 0 0 0 0 0 0 0 0 0 3 3 10 10 6 10 6 3 0 6 6 13 16 10 6 6 10 10 6 13 16 10 13 16 13 32 39 35 26 26 29 19 16 6
0 0 0 0 0 0 0 0 0 0 0 0 0 3 6 6 6 13 10 6 13 13 13 13 10 3 10 13 13 13 10 10 16 10 13 10 10 10 10 13 10 10 13 10 16 16 10 10 10
0 0 0 0 0 0 0 0 0 0 0 3 3 6 6 6 13 10 6 6 10 13 16 13 10 10 6 3 6 10 6 6 6 6 6 6 10 10 16 6 6 6 13 13 13 10 6 6 6
0 0 0 0 0 0 0 0 0 0 3 6 6 6 6 10 10 13 10 6 3 13 13 10 3 6 3 3 3 6 10 10 6 13 16 23 13 13 6 6 6 10 6 3 10 13 10 3 6
0 0 0 0 0 0 0 0 0 3 3 6 6 6 6 6 3 10 10 6 10 13 13 6 13 10 6 6 3 10 10 13 13 13 13 13 10 10 3 6 10 13 10 10 10 10 0 3 3
0 0 0 0 0 0 0 0 0 0 3 6 6 3 6 10 3 6 10 10 13 16 10 13 13 10 6 6 6 13 13 13 10 6 6 10 16 6 3 3 3 6 6 6 6 6 3 0 0
0 0 0 0 0 0 0 0 0 0 0 3 6 3 3 6 6 6 10 10 16 13 10 13 13 10 10 10 10 13 16 16 19 16 10 10 16 13 10 6 6 13 10 6 10 3 0 0 0
0 0 0 0 0 0 0 0 0 0 0 3 3 0 0 0 3 10 13 19 19 23 16 13 19 13 13 10 16 16 19 19 19 16 19 19 23 19 13 10 6 10 6 3 3 6 10 6 6
0 0 0 0 0 0 0 0 0 0 0 0 0 0 0 0 0 13 16 19 23 26 13 16 16 13 10 6 16 16 16 16 16 16 19 23 23 19 23 19 19 19 10 10 13 10 13 10 6
0 0 0 0 0 0 0 0 0 0 0 0 0 0 0 0 3 16 16 19 23 23 16 19 19 10 10 13 16 13 16 16 16 16 16 19 23 23 23 23 19 19 13 16 16 13 13 10 6
0 0 0 0 0 0 0 0 0 0 0 0 3 0 0 0 3 13 16 19 16 23 19 26 13 13 10 10 16 13 16 13 16 16 19 19 23 26 26 26 19 26 13 13 16 13 13 13 13
0 0 0 0 0 0 0 0 0 0 0 0 0 0 3 0 3 10 13 16 16 23 23 16 13 13 13 16 16 13 13 13 13 19 23 19 16 23 26 26 26 16 16 16 16 16 16 16 13
0 0 0 0 0 0 0 0 0 0 0 0 0 0 3 3 6 10 13 13 23 23 23 23 23 16 23 19 16 16 13 13 13 16 19 19 16 19 23 26 19 19 19 19 23 19 19 19 19
0 0 0 0 0 0 0 0 0 0 0 0 0 0 0 6 10 13 16 16 19 19 29 29 26 26 32 26 19 16 13 13 16 16 19 23 23 23 23 23 19 19 23 23 23 23 26 23 19
0 0 0 0 0 0 0 0 0 0 0 0 0 0 3 6 6 10 13 16 19 19 29 35 32 42 35 32 35 26 16 13 16 16 16 23 29 29 29 29 23 23 23 23 23 23 26 23 19
0 0 0 0 0 0 0 0 0 0 0 0 0 0 3 3 3 6 10 19 19 19 32 39 39 32 35 39 29 26 29 26 19 26 23 29 29 29 35 29 29 26 23 19 19 26 26 23 23
0 0 0 0 0 0 0 0 0 0 0 0 0 0 3 0 3 3 6 16 19 23 32 42 39 35 35 39 32 29 26 26 26 26 29 26 23 35 35 32 32 29 23 23 16 19 16 23 23
0 0 0 0 0 0 0 0 0 0 0 0 0 0 3 3 0 0 3 6 16 26 26 48 42 42 39 39 35 35 29 32 32 26 23 23 19 26 29 29 26 29 26 23 29 29 19 23 23
0 0 0 0 0 0 0 0 0 0 0 0 0 0 3 3 3 0 3 6 13 29 35 45 42 42 39 35 39 32 35 42 35 32 29 29 29 29 32 32 29 23 19 19 29 19 19 26 23
0 0 0 0 0 0 0 0 0 0 0 0 0 0 0 6 6 6 3 10 16 26 39 45 42 42 42 39 39 35 35 32 32 32 29 26 26 26 26 23 19 23 19 23 26 19 19 23 19

GEFSSGP_con_cape1000_342.txt.gz
Probability
23 23 16 6 3 0 0 0 0 0 0 0 0 0 0 0 0 0 0 0 6 10 19 42 65 65 65 65 65 65 65 74 81 74 74 74 71 71 68 71 68 71 61 68 74 68 61 61 61
13 13 13 3 0 0 0 0 0 0 0 0 0 0 0 3 0 0 0 0 3 10 13 26 61 68 71 65 65 61 61 68 74 74 68 65 68 68 65 68 58 61 58 58 58 55 52 58 52
10 6 3 0 0 0 0 0 0 0 0 0 0 0 0 3 0 3 0 0 3 6 13 26 65 65 77 68 68 58 61 65 68 68 68 71 68 68 55 68 58 61 61 52 52 55 55 52 58
3 10 3 0 0 0 0 0 0 0 0 0 0 0 0 3 3 0 0 3 3 3 13 26 61 68 77 71 65 61 58 55 52 58 61 55 61 61 61 65 55 58 55 52 45 52 48 42 35
3 0 0 0 0 0 0 0 0 0 0 0 0 0 3 3 0 0 0 6 6 6 10 26 52 68 77 71 71 68 61 61 52 48 58 58 55 58 65 65 65 61 58 55 52 52 52 42 45
0 0 0 0 0 0 0 0 0 0 0 0 0 0 0 3 0 0 0 0 10 6 10 19 42 58 71 68 68 65 58 52 45 42 55 65 61 61 58 58 55 52 52 48 61 52 58 55 55
0 0 0 0 0 0 0 0 0 0 0 0 0 0 0 0 0 0 0 0 6 10 6 16 23 35 52 68 68 61 55 48 58 48 45 55 58 55 58 58 52 48 55 55 52 55 52 55 58
0 0 0 0 0 0 0 0 0 0 0 0 0 0 0 0 0 0 0 3 3 3 3 13 13 19 32 39 45 65 58 55 52 52 55 55 52 52 55 48 52 48 48 52 45 52 48 48 52
0 0 0 0 0 0 0 0 0 0 0 0 0 0 0 0 0 0 3 3 3 3 3 6 10 6 13 19 39 45 55 58 55 48 52 48 26 23 29 42 48 48 45 45 52 45 45 52 45
0 0 0 0 0 0 0 0 0 0 0 0 0 3 0 0 3 3 3 3 3 3 3 6 6 6 6 13 16 16 35 39 32 29 32 13 6 13 23 29 45 42 45 42 45 45 42 29 19
0 0 0 0 0 0 0 0 0 0 0 0 0 3 6 3 3 3 0 0 0 0 0 0 0 0 3 3 3 0 3 10 10 10 13 10 6 10 16 16 19 26 32 19 19 35 23 16 16
0 0 0 0 0 0 0 0 0 0 0 0 3 6 3 3 3 0 0 3 3 0 0 0 0 0 0 3 3 0 0 0 3 6 6 10 10 10 13 13 13 16 16 10 10 10 13 13 10
0 0 0 0 0 0 0 0 0 0 3 3 3 3 0 0 0 0 0 0 0 0 0 0 3 3 3 0 0 0 0 3 0 6 6 6 3 6 0 3 10 10 3 10 10 10 10 10 10
0 0 0 0 0 0 0 0 3 3 3 6 3 0 0 0 0 0 0 0 0 0 6 6 6 3 0 0 0 0 3 0 0 6 3 3 0 0 0 0 0 0 3 3 3 3 0 3 6
0 0 0 0 0 0 0 3 3 3 3 0 3 0 3 3 3 0 0 3 10 6 10 6 3 3 3 3 0 0 0 3 3 0 0 0 0 0 0 0 0 0 0 0 0 0 0 0 3
0 0 0 0 0 0 0 0 3 0 3 3 6 3 3 3 3 0 3 3 6 6 6 6 6 3 3 0 0 0 0 0 3 0 3 6 10 0 0 0 0 0 0 3 3 0 0 0 0
0 0 0 0 0 0 0 0 0 0 0 0 0 3 3 3 3 0 0 3 3 3 6 6 3 3 3 0 0 0 0 0 0 0 3 6 10 6 3 0 0 3 3 3 3 0 0 0 0
0 0 0 0 0 0 0 0 0 0 3 0 0 0 0 0 0 3 6 6 6 6 3 0 0 3 0 0 0 0 6 3 3 6 3 6 10 13 6 3 3 3 3 3 3 3 0 0 0
0 0 0 0 0 0 0 0 0 0 0 0 0 0 0 0 0 3 10 13 6 6 6 3 0 0 0 0 0 0 0 3 3 6 10 6 10 10 10 10 10 6 6 6 3 0 3 0 6
0 0 0 0 0 0 0 0 0 0 0 0 0 0 3 0 3 6 13 10 6 10 10 3 3 6 3 0 0 0 0 3 6 6 13 10 16 13 16 10 10 10 10 10 10 0 6 10 10
0 0 0 0 0 0 0 0 0 0 0 0 0 0 0 6 10 10 13 10 6 10 10 10 6 6 6 3 3 3 3 6 10 6 6 10 16 13 16 13 13 13 13 13 13 10 10 10 10
0 0 0 0 0 0 0 0 0 0 0 0 0 0 0 3 6 13 10 13 13 3 6 10 6 10 6 10 6 6 3 3 3 6 10 13 19 19 19 16 16 13 13 13 13 13 13 13 13
0 0 0 0 0 0 0 0 0 0 0 0 0 0 0 3 3 16 16 13 16 6 3 6 10 10 6 10 6 3 3 3 3 6 10 13 16 16 16 16 16 13 13 13 13 13 16 13 13
0 0 0 0 0 0 0 0 0 0 0 0 0 0 0 3 3 13 16 19 16 10 3 3 6 3 10 10 10 3 3 6 10 10 13 16 16 16 16 23 13 16 13 13 13 13 13 16 16
0 0 0 0 0 0 0 0 0 0 0 0 0 0 0 0 6 10 13 19 16 13 13 6 6 3 10 10 10 10 6 6 10 13 13 13 16 16 16 16 16 16 16 19 16 13 13 16 16
0 0 0 0 0 0 0 0 0 0 0 0 0 0 0 0 6 10 10 16 13 16 16 13 3 6 10 13 10 10 6 6 6 10 13 16 16 16 19 19 19 19 16 19 19 13 13 13 13
0 0 0 0 0 0 0 0 0 0 0 0 0 0 0 3 3 6 10 13 16 16 16 10 6 6 10 16 6 10 6 10 13 6 13 13 16 19 19 23 19 16 16 16 16 16 16 16 16
0 0 0 0 0 0 0 0 0 0 0 0 0 0 3 3 0 0 10 10 13 13 16 13 13 10 10 16 13 16 16 13 13 13 13 13 13 13 13 13 10 16 19 19 19 19 13 13 16
0 0 0 0 0 0 0 0 0 0 0 0 0 3 3 0 0 0 0 3 10 16 16 19 19 16 10 16 19 23 23 23 16 16 13 10 10 13 13 13 16 23 26 23 19 19 13 13 16
0 0 0 0 0 0 0 0 0 0 0 0 0 0 0 0 0 0 0 3 10 16 19 19 16 16 13 16 10 16 13 13 19 16 13 13 16 16 13 16 16 16 16 13 13 13 16 10 13

GEFSSGP_con_cape1000_348.txt.gz
Probability
19 23 19 35 29 0 0 0 0 0 0 0 0 0 0 0 0 0 3 3 3 10 13 29 61 61 61 65 77 68 68 74 68 68 74 71 74 71 74 71 74 71 68 68 65 65 65 65 71
23 19 32 32 3 0 0 0 0 0 0 0 0 0 0 0 0 0 0 0 3 10 10 23 48 65 61 68 71 65 65 71 71 74 74 74 68 74 71 77 71 58 55 65 58 52 55 58 58
16 26 29 13 0 0 0 0 0 0 0 0 0 0 0 0 3 3 0 0 3 6 19 32 55 58 71 68 74 65 68 65 71 68 68 68 65 65 68 61 55 55 55 52 55 48 48 48 48
26 26 23 10 0 0 0 0 0 0 0 0 0 0 0 6 6 0 0 0 6 3 10 32 55 61 65 68 68 68 68 68 68 68 71 65 61 68 65 58 55 55 58 55 52 42 45 39 39
29 13 10 0 0 0 0 0 0 0 0 0 0 0 0 6 10 3 0 0 0 6 10 26 45 58 58 65 65 55 58 52 65 61 68 65 61 68 61 58 52 48 52 52 48 48 45 42 32
16 10 0 0 0 0 0 0 0 0 0 0 0 0 0 6 10 6 0 0 0 3 13 23 48 45 58 58 65 58 52 52 58 58 61 61 61 58 58 48 52 58 52 55 52 52 42 42 45
10 10 0 0 0 0 0 0 0 0 0 0 0 0 3 6 10 10 3 0 3 10 19 29 39 55 58 55 48 52 45 42 48 52 61 52 52 61 58 55 48 48 55 52 52 39 42 39 48
6 10 0 0 0 0 0 0 0 0 3 0 0 0 0 3 6 10 10 3 10 13 13 26 29 45 39 42 45 48 42 42 39 45 52 52 48 52 52 55 48 45 52 52 45 42 48 42 42
13 6 0 0 0 0 0 0 0 3 3 0 0 0 0 3 6 10 6 3 0 0 10 19 32 35 39 39 42 48 52 52 45 39 42 48 48 42 39 29 42 45 45 48 48 45 45 48 35
13 0 0 0 0 0 0 0 3 3 3 0 3 3 3 3 6 3 3 3 10 10 13 13 19 29 26 26 39 35 39 48 45 52 52 55 52 48 23 32 39 39 48 48 45 39 35 26 16
10 0 0 0 0 0 0 0 0 0 6 3 6 3 3 3 3 3 0 6 10 16 16 19 26 29 26 39 45 45 42 52 42 45 48 58 45 39 29 39 39 48 39 42 32 26 26 19 26
3 0 0 0 0 0 0 0 0 0 6 3 10 3 3 3 6 3 13 13 13 16 19 19 26 32 32 32 39 39 42 52 42 45 45 45 48 42 35 39 32 39 45 48 39 45 29 32 32
0 0 0 0 0 0 0 0 3 3 10 10 6 3 3 6 6 6 13 13 16 23 23 26 23 32 39 45 42 35 45 48 42 52 45 45 42 39 39 55 58 48 35 42 52 48 45 39 29
0 0 0 0 0 0 3 3 3 6 6 10 13 6 3 6 6 6 13 19 16 19 16 26 23 32 42 42 45 35 35 55 45 42 42 42 42 42 42 55 58 52 55 58 58 35 39 48 39
0 0 0 0 0 0 3 3 3 3 6 10 10 6 6 6 10 10 16 19 19 19 26 26 26 29 35 29 29 26 29 32 39 42 45 45 45 55 55 52 52 48 45 39 45 35 39 32 32
0 0 0 0 0 0 0 0 3 3 6 10 10 6 6 10 10 10 16 23 23 26 29 26 26 29 35 39 42 35 32 35 45 39 45 52 48 52 58 52 48 48 45 39 42 35 39 35 35
0 0 0 0 0 0 0 0 3 6 6 13 16 10 6 10 13 19 16 19 26 29 29 26 23 29 26 29 42 35 39 48 48 45 48 48 52 48 55 48 45 48 48 42 29 39 39 39 35
0 0 0 0 0 0 0 0 3 6 3 13 13 16 6 10 13 19 19 19 26 26 35 32 26 35 32 32 35 39 39 45 48 42 45 45 52 55 48 42 45 45 48 48 32 32 45 45 42
0 0 0 0 0 0 0 0 3 6 3 10 13 16 19 13 10 16 23 19 23 26 35 39 39 42 52 45 32 35 39 48 42 39 39 48 45 42 48 35 48 45 39 48 39 35 32 35 39
0 0 0 0 0 0 0 0 3 6 6 10 13 16 16 19 16 26 29 26 35 35 48 52 61 45 52 52 55 52 52 48 48 42 39 52 48 39 39 45 42 52 55 45 45 45 39 26 32
0 0 0 0 3 0 0 3 3 3 3 6 10 16 13 16 16 39 32 32 32 35 35 35 55 58 58 48 35 42 52 55 39 42 52 52 48 48 48 42 42 48 45 45 52 45 42 32 35
0 0 0 0 0 0 0 0 3 3 6 10 10 13 10 16 13 32 39 32 35 29 35 42 65 65 65 55 48 52 61 52 55 55 45 52 45 45 42 45 45 48 42 55 42 35 39 39 35
0 0 0 0 0 0 0 0 0 3 3 6 13 6 10 16 10 26 32 35 35 26 29 48 68 71 65 58 68 68 55 52 48 48 48 52 45 45 42 45 48 45 45 52 45 42 42 39 39
0 0 0 0 0 0 0 0 0 6 3 3 10 10 13 16 16 29 35 35 32 26 26 39 65 74 77 68 65 65 65 61 61 58 55 48 48 45 42 42 48 48 48 52 52 58 55 52 45
0 0 0 0 0 0 0 0 3 3 3 10 6 10 23 16 26 39 32 39 39 39 35 39 65 68 68 65 61 65 65 68 65 58 55 52 52 45 45 42 45 52 55 55 55 58 55 52 48
0 0 0 0 0 0 0 0 3 3 6 10 3 10 19 26 29 39 32 32 35 42 52 48 71 74 65 58 71 68 68 65 58 58 52 55 58 48 52 45 48 52 55 45 55 48 52 55 61
0 0 0 0 0 0 0 0 3 6 10 13 13 16 19 29 32 39 29 32 39 48 52 52 71 74 65 61 68 71 68 68 65 68 65 58 55 48 52 45 52 58 52 55 65 58 61 61 61
0 0 0 0 0 0 0 0 0 10 13 16 19 16 19 32 35 35 35 35 42 42 52 52 48 58 61 65 58 58 61 68 68 61 68 65 58 55 55 52 52 52 52 58 65 55 52 61 61
0 0 0 0 0 0 0 0 0 13 10 16 13 16 23 26 26 32 42 45 55 45 48 55 55 55 52 55 61 65 55 58 61 58 61 65 61 61 58 58 52 45 55 58 58 48 52 52 55
0 0 0 0 0 0 0 0 0 3 10 16 16 13 26 35 26 35 39 45 48 55 42 58 55 61 52 48 52 58 61 58 52 58 61 65 58 61 55 45 48 48 55 55 52 52 45 48 48

GEFSSGP_con_cape1000_354.txt.gz
Probability
16 16 29 58 71 39 0 0 0 0 0 0 0 0 0 0 0 6 3 13 16 26 29 52 65 58 61 58 71 68 65 58 68 58 68 65 61 61 55 61 58 65 61 71 71 71 74 68 68
13 39 55 71 35 0 0 0 3 0 0 0 0 3 3 3 0 3 10 13 13 19 23 35 61 68 61 65 68 65 65 61 65 65 68 71 71 65 71 61 68 61 65 58 61 61 68 61 55
16 42 55 48 19 0 0 0 0 0 0 0 0 3 3 3 0 3 10 10 13 19 29 52 68 71 61 65 61 61 58 65 68 68 74 65 65 71 61 58 55 55 48 42 39 48 52 52 45
48 55 55 26 6 0 0 0 0 0 0 0 0 3 3 6 3 6 13 6 13 13 23 45 68 65 58 55 58 61 65 71 68 71 71 74 68 71 68 58 55 55 55 42 39 39 45 45 35
45 48 35 6 0 0 0 0 0 0 0 0 0 10 6 6 3 3 3 3 6 19 29 48 71 61 58 58 65 65 65 65 68 68 65 61 74 68 58 52 55 55 52 48 39 42 39 39 32
32 29 13 3 0 0 0 0 0 0 0 0 3 6 3 6 6 3 0 13 10 19 35 45 71 65 55 58 55 61 55 61 61 61 65 61 55 55 58 55 55 52 42 45 42 35 39 35 35
19 16 10 0 0 0 0 0 0 0 0 0 0 6 0 3 6 3 6 10 16 19 32 45 52 55 58 55 58 55 52 61 58 61 61 61 55 58 55 48 45 48 45 45 32 35 39 35 29
6 10 3 0 0 0 0 0 0 0 0 0 0 6 6 6 6 6 16 13 16 16 16 35 39 48 45 45 52 58 55 55 61 52 48 52 61 61 61 52 55 48 39 32 32 32 35 32 35
3 6 0 0 0 0 0 0 0 0 0 0 0 6 6 10 3 10 10 6 16 13 26 29 29 42 39 29 39 55 55 48 48 48 52 61 55 48 58 48 55 52 42 35 32 39 42 45 39
3 6 0 0 0 0 0 0 0 0 3 0 6 10 10 10 10 10 13 6 13 16 26 35 32 39 39 19 42 58 48 52 52 65 65 65 65 61 29 42 55 39 45 55 55 61 48 39 26
3 3 0 0 0 0 0 0 0 0 3 10 13 10 10 10 10 13 13 16 23 23 26 29 35 45 42 55 52 65 61 71 61 61 71 68 58 45 39 42 48 52 48 42 39 45 29 23 26
0 0 0 0 0 0 3 3 0 0 3 10 13 10 16 10 13 16 23 23 26 23 16 29 39 42 58 52 61 68 68 65 61 74 65 61 55 55 58 58 55 52 52 61 52 52 35 29 26
0 0 0 0 0 0 3 3 0 3 6 10 10 10 10 6 13 19 19 16 23 29 23 39 48 48 55 71 71 61 68 65 61 71 58 55 52 48 52 58 65 65 65 61 58 52 55 42 42
0 0 0 0 0 0 3 0 3 3 10 13 10 10 10 10 13 16 16 26 23 29 29 39 39 65 68 65 77 71 65 74 65 68 58 61 55 55 61 65 65 55 61 58 58 48 58 48 52
0 0 0 0 0 0 0 3 3 3 10 13 13 13 13 10 13 10 23 26 23 23 42 45 42 52 71 68 74 58 65 61 65 65 61 65 55 58 68 65 61 58 55 52 55 48 52 42 45
0 0 0 0 0 0 0 3 3 3 6 10 13 13 13 19 13 13 19 23 26 35 52 52 32 39 65 71 74 68 58 61 65 65 58 55 58 55 68 68 65 61 61 55 65 52 52 39 42
0 0 0 0 0 0 0 3 3 3 6 10 10 16 19 19 16 16 16 16 29 45 58 55 52 52 65 61 68 74 74 71 65 61 58 58 58 55 61 61 61 61 55 55 39 48 55 48 48
0 0 0 0 0 0 0 0 3 3 3 10 10 16 26 23 23 19 16 23 29 45 61 68 68 77 77 77 77 77 74 71 68 68 61 61 58 58 61 55 55 61 58 58 52 58 58 58 55
0 0 0 0 0 0 0 0 3 3 3 10 10 13 16 26 29 19 23 29 35 45 65 77 81 81 84 81 74 74 74 71 71 71 65 65 61 58 61 55 65 61 61 55 55 52 55 52 45
0 0 0 0 0 0 0 0 0 6 3 6 13 16 19 29 35 32 32 32 29 55 74 84 84 84 84 84 84 77 77 74 71 68 68 68 65 61 48 58 65 65 61 58 48 55 58 45 39
0 0 0 3 0 0 0 0 0 3 6 10 16 19 23 26 35 42 35 39 39 48 58 55 84 84 84 84 74 71 77 71 65 61 65 68 68 61 61 61 58 61 65 65 61 65 52 48 45
0 0 0 0 3 3 0 0 3 3 3 3 6 16 19 26 32 48 42 45 39 48 55 87 87 84 90 84 68 71 74 58 61 65 61 65 61 58 58 58 58 61 65 61 61 58 58 55 45
0 0 0 0 0 0 0 0 6 6 3 3 6 10 13 23 29 39 45 48 39 42 52 74 87 87 84 84 77 81 68 65 61 61 61 61 61 58 52 55 58 58 58 58 58 61 65 55 55
0 0 0 0 0 0 0 0 6 10 10 3 10 10 16 13 29 35 48 58 61 42 45 61 87 87 90 81 77 77 74 68 65 68 65 65 65 68 65 65 65 61 61 68 65 61 65 68 61
0 0 0 0 0 0 0 0 3 10 6 6 6 10 13 16 29 32 48 55 55 55 52 61 77 84 81 84 81 81 77 81 81 74 68 68 65 68 68 65 71 71 68 68 68 65 65 68 65
0 0 0 0 0 0 0 3 3 6 10 10 6 6 6 19 26 32 45 55 52 52 48 68 77 81 81 77 81 81 77 74 77 77 65 68 68 71 74 71 71 71 68 65 68 65 61 65 61
0 0 0 0 0 0 0 3 6 6 6 10 6 13 10 13 19 29 39 52 48 45 58 68 74 77 77 81 87 77 77 77 74 74 68 68 74 65 68 77 71 71 74 71 74 68 65 65 58
0 0 0 0 10 0 0 3 6 6 6 13 13 16 19 16 23 39 39 52 52 52 61 61 68 77 81 81 81 74 77 77 81 71 71 65 65 65 68 74 74 77 74 74 74 68 71 65 65
0 0 0 0 0 0 0 0 0 3 6 13 19 16 19 19 16 42 48 58 52 52 55 61 61 74 74 77 77 77 71 74 74 74 71 65 65 68 65 74 71 71 68 65 68 65 61 55 52
0 0 0 0 6 0 0 0 0 0 10 16 19 26 23 26 19 35 48 52 61 68 61 65 61 61 71 74 71 71 71 68 71 74 71 65 68 61 61 65 68 61 58 61 61 61 58 55 52